Weather History for KHIE - October, 2012

Change the Weather History Date:

Wednesday, October 3, 2012

  Actual Average Record
Temperature  
Mean Temperature 63 °F -  
Max Temperature 69 °F 59 °F 78 °F (2005)
Min Temperature 57 °F 31 °F 28 °F (1997)
Degree Days  
Heating Degree Days 2    
Growing Degree Days 13 (Base 50)    
Moisture  
Dew Point 57 °F    
Average Humidity 87    
Maximum Humidity 94    
Minimum Humidity 68    
Precipitation  
Precipitation 0.05 in - - ()
Sea Level Pressure  
Sea Level Pressure 30.11 in    
Wind  
Wind Speed 1 mph (East)    
Max Wind Speed 7 mph    
Max Gust Speed -    
Visibility 9 miles    
Events Rain    
Averages and records for this station are not official NWS values.
T = Trace of Precipitation, MM = Missing Value Source: NWS Daily Summary

Daily Weather History Graph

Daily Weather History Graph

Search for Another Location

Airport or City:

Trip Planner

Search our weather history database for the weather conditions in past years. The results will help you decide how hot, cold, wet, or windy it might be!

Date:

Astronomy

Oct. 03, 2012 Rise Set
Actual Time 6:46 AM EDT 6:22 PM EDT
Civil Twilight 6:17 AM EDT 6:51 PM EDT
Nautical Twilight 5:44 AM EDT 7:24 PM EDT
Astronomical Twilight 5:10 AM EDT 7:58 PM EDT
Moon 8:03 PM EDT (10/3) 10:16 AM EDT (10/3)
Length of Visible Light 12h 33m
Length of Day
11h 35m
Waning Gibbous, 89% of the Moon is Illuminated
Oct 3
Waning Gibbous
Oct 8
Last Quarter
Oct 15
New
Oct 21
First Quarter
Oct 29
Full

Hourly Weather History & Observations

Time (EDT) Temp. Dew Point Humidity Pressure Visibility Wind Dir Wind Speed Gust Speed Precip Events Conditions
12:14 AM 59.0 °F 55.4 °F 88% 30.07 in 10.0 mi Calm Calm - N/A   Overcast
12:47 AM 59.0 °F 55.4 °F 88% 30.06 in 10.0 mi Calm Calm - N/A   Overcast
12:52 AM 59.0 °F 55.0 °F 87% 30.06 in 10.0 mi Calm Calm - N/A   Overcast
1:04 AM 57.2 °F 55.4 °F 94% 30.07 in 10.0 mi Calm Calm - N/A   Overcast
1:26 AM 59.0 °F 55.4 °F 88% 30.07 in 10.0 mi Calm Calm - N/A   Overcast
1:52 AM 59.0 °F 55.0 °F 87% 30.07 in 10.0 mi Calm Calm - N/A   Overcast
2:05 AM 57.2 °F 55.4 °F 94% 30.07 in 10.0 mi Calm Calm - N/A   Overcast
2:52 AM 57.9 °F 55.0 °F 90% 30.06 in 10.0 mi Calm Calm - N/A   Overcast
3:52 AM 57.9 °F 55.0 °F 90% 30.07 in 10.0 mi Calm Calm - N/A   Overcast
4:52 AM 57.9 °F 55.0 °F 90% 30.08 in 10.0 mi Calm Calm - N/A   Overcast
5:52 AM 57.9 °F 55.0 °F 90% 30.09 in 10.0 mi Calm Calm - N/A   Overcast
6:52 AM 57.9 °F 55.0 °F 90% 30.09 in 10.0 mi Calm Calm - N/A   Overcast
7:52 AM 57.9 °F 55.0 °F 90% 30.10 in 10.0 mi Calm Calm - N/A   Overcast
8:18 AM 59.0 °F 55.4 °F 88% 30.11 in 10.0 mi South 3.5 mph - N/A   Overcast
8:41 AM 59.0 °F 55.4 °F 88% 30.11 in 10.0 mi Calm Calm - 0.00 in Rain Light Rain
8:52 AM 60.1 °F 55.0 °F 83% 30.12 in 10.0 mi Calm Calm - 0.00 in   Overcast
9:52 AM 60.1 °F 57.0 °F 90% 30.11 in 8.0 mi Calm Calm - 0.01 in Rain Light Rain
10:52 AM 63.0 °F 59.0 °F 87% 30.13 in 10.0 mi SSE 4.6 mph - 0.00 in Rain Light Rain
11:52 AM 66.0 °F 57.9 °F 75% 30.11 in 10.0 mi Calm Calm - 0.00 in Rain Light Rain
12:52 PM 69.1 °F 57.9 °F 68% 30.09 in 10.0 mi East 4.6 mph - 0.00 in   Overcast
1:39 PM 66.2 °F 59.0 °F 78% 30.10 in 6.0 mi Calm Calm - 0.00 in Rain Light Rain
1:52 PM 64.9 °F 61.0 °F 87% 30.10 in 5.0 mi Calm Calm - 0.00 in Rain Light Rain
1:58 PM 64.4 °F 60.8 °F 88% 30.10 in 1.8 mi Calm Calm - 0.02 in Rain Rain
2:08 PM 64.4 °F 60.8 °F 88% 30.10 in 1.8 mi East 3.5 mph - 0.02 in Rain Light Rain
2:12 PM 64.4 °F 60.8 °F 88% 30.10 in 3.0 mi ENE 4.6 mph - 0.02 in Rain Light Rain
2:52 PM 64.0 °F 59.0 °F 84% 30.10 in 10.0 mi East 5.8 mph - 0.03 in   Overcast
3:52 PM 63.0 °F 57.9 °F 84% 30.11 in 10.0 mi NE 4.6 mph - 0.00 in   Overcast
4:52 PM 62.1 °F 57.9 °F 86% 30.12 in 10.0 mi ENE 6.9 mph - 0.01 in   Overcast
5:40 PM 62.6 °F 57.2 °F 82% 30.12 in 10.0 mi ESE 3.5 mph - N/A   Overcast
5:52 PM 61.0 °F 59.0 °F 93% 30.13 in 5.0 mi Calm Calm - 0.00 in Rain Light Rain
6:01 PM 62.6 °F 59.0 °F 88% 30.13 in 5.0 mi Calm Calm - 0.00 in   Overcast
6:52 PM 61.0 °F 57.0 °F 87% 30.14 in 10.0 mi Calm Calm - 0.00 in   Overcast
7:07 PM 60.8 °F 57.2 °F 88% 30.14 in 10.0 mi Calm Calm - N/A   Overcast
7:21 PM 60.8 °F 57.2 °F 88% 30.14 in 6.0 mi Calm Calm - 0.00 in Rain Light Rain
7:43 PM 60.8 °F 57.2 °F 88% 30.14 in 10.0 mi Calm Calm - 0.00 in   Overcast
7:52 PM 61.0 °F 57.0 °F 87% 30.14 in 10.0 mi ENE 3.5 mph - 0.00 in   Overcast
8:11 PM 60.8 °F 57.2 °F 88% 30.14 in 10.0 mi East 3.5 mph - N/A   Overcast
8:48 PM 60.8 °F 57.2 °F 88% 30.15 in 10.0 mi Calm Calm - N/A   Overcast
8:52 PM 60.1 °F 57.0 °F 90% 30.16 in 10.0 mi Calm Calm - N/A   Overcast
9:00 PM 60.8 °F 57.2 °F 88% 30.16 in 10.0 mi Calm Calm - N/A   Overcast
9:52 PM 61.0 °F 57.9 °F 90% 30.16 in 10.0 mi Calm Calm - N/A   Overcast
10:32 PM 60.8 °F 57.2 °F 88% 30.16 in 10.0 mi Calm Calm - N/A   Overcast
10:52 PM 60.1 °F 57.0 °F 90% 30.17 in 10.0 mi Calm Calm - N/A   Overcast
11:52 PM 60.1 °F 57.0 °F 90% 30.17 in 10.0 mi Calm Calm - N/A   Overcast